Showing default

IRIDIUM 163, 43575

Orbit data source: Space-Track

IRIDIUM 163, 43575 is a payload satellite owned by Iridium (US) in LEO that was launched on Wed, 25 Jul 2018 UTC via an FALCON 9 launch vehicle from the Air Force Western Test Range (AFWTR). Payload-class satellites include a variety of spacecraft equipped with specific instruments for various scientific and technological missions. These include communications satellites like Starlink; space stations such as the ISS; scientific satellites like the Hubble; Earth observation satellites from companies like Planet Labs, Umbra, and HawkEye 360; GPS; miniature CubeSats for education and research; and military/defense satellites.

Loading next visibility...
Identifier
43575, 2018-061G
Orbit
LEO
Country
Flag of USUS
Related business
Manufacturer
NGIS SSG Gilbert
Mission
Operational Commercial Communications
Bus & Motor
ELITEBUS, Unknown motor
Mass
860 kg wet, 700 kg dry
Launch date (UTC)
2018-07-25 (7 years ago)
Launch vehicle
FALCON 9
Launch site
Air Force Western Test Range (AFWTR)
Object type
Payload
Rocket body
Debris
Shape & HBR
Trap Box + 2 Pan, 4.8 m
Radar Cross Section
10.154 m², Large (>1 m²)

Expand to show TLE details & history
Last TLE update: 16 hours ago

TLE from 16 hours ago
0 IRIDIUM 163
1 43575U 18061G   25304.86021400  .00000047  00000-0  96236-5 0  9997
2 43575  86.3980 152.1781 0002256  85.2797 274.8656 14.34217790380656
Epoch: 2025-10-31T20:38Z
TLE epoch observation values (Epoch: 2025-10-31T20:38:42.489Z)
Latitude
-0.00007°
Longitude
162.10247°
Altitude
780.581 km
Speed
7.464 km/s
True Right ascension
10h 08m 42s
True Declination
0° 00' 00"
Sunlit
Object was in daylight at epoch
Visualization orbit readout
Latitude
Unknown
Longitude
Unknown
Altitude
Unknown
Speed
Unknown
Apparent Right ascension
Unknown
Apparent Declination
Unknown
Sunlit
N/A
Visualization observer readout
Local Sidereal Time
08:16:24
Azimuth
Unknown
Elevation
Unknown
Doppler factor
Unknown
Orbital elements
Apogee altitude
776.245 km
Perigee altitude
773.018 km
Semi-major axis
7,152.768 km
Eccentricity
0.00023
Inclination
86.398°
RAAN
152.1781°
Arg. of periapsis
85.2797°
True anomaly
274.83984°
Mean anomaly
274.8656°
Eccentric anomaly
274.85272°
Mean motion
3.58783 °/min
Orbital period
100.34 mins
BSTAR
0.0000096236
Loading maneuver chart data...
Computing Atmospheric mass density...
Loading historical data...
Loading historical data...
Loading historical data...
Loading historical data...
Loading historical data...
Loading historical data...
Loading historical data...

Documentation

Showing up to 5 results
|